FLOCK 4P-10 (44808 NORAD) Tracking and Keplerian Element Data

This shows tracking and keplerian element data for the satellite.

Feedback or suggestion? Click here.




ElementValue
Catalog44808
NameFLOCK 4P-10
Epoch Orbit1940
Epoch Day93.97550837
Epoch Year2020
RAAN155.3804
Inclination97.5037
Eccentricity0.00146
Argument of Perigee155.941
Mean Anonmoly204.2509
Mean Motion15.1952124
Decay Rate2.264E-05
L11 44808U 19081E 20093.97550837 .00002264 00000-0 10959-3 0 9992
L22 44808 97.5037 155.3804 0014600 155.9410 204.2509 15.19521240 19405

Live tracking and technical data element details for FLOCK 4P-10 (NORAD 44808). FLOCK 4P-10 can be tracked NOW for your location showing map with azimuth and elevation plus other details from your city location.

Track the satellite on the map from your city or location and see movement details for azimuth, elevation, latitude, longitude, range, height, and movement on the map or in text.







IsCatalogInMostPopularTable: catalog: 44808, numindb: 38
Update: records affected: 1



GetName: 44808 FLOCK 4P-10

Hit Count: updated at: Fri, 03 Apr 2020 23:45:41 GMT